Year,Month,Day,Hour,Minute,Value (Times are PST for temperature in C)
2017,06,26,11,59,19.10
2017,06,26,12,00,19.10
2017,06,26,12,01,19.20
2017,06,26,12,02,19.30
2017,06,26,12,03,19.30
2017,06,26,12,04,19.30
2017,06,26,12,05,19.30
2017,06,26,12,06,19.30
2017,06,26,12,07,19.30
2017,06,26,12,08,19.20
2017,06,26,12,09,19.10
2017,06,26,12,10,19.00
2017,06,26,12,11,19.00
2017,06,26,12,12,19.00
2017,06,26,12,13,19.00
2017,06,26,12,14,19.00
2017,06,26,12,15,18.90
2017,06,26,12,16,18.90
2017,06,26,12,17,18.90
2017,06,26,12,18,18.90
2017,06,26,12,19,18.90
2017,06,26,12,20,19.00
2017,06,26,12,21,19.10
2017,06,26,12,22,19.20
2017,06,26,12,23,19.20
2017,06,26,12,24,19.30
2017,06,26,12,25,19.30
2017,06,26,12,26,19.40
2017,06,26,12,27,19.40
2017,06,26,12,28,19.40
2017,06,26,12,29,19.40
2017,06,26,12,30,19.40
2017,06,26,12,31,19.40
2017,06,26,12,32,19.40
2017,06,26,12,33,19.40
2017,06,26,12,34,19.40
2017,06,26,12,35,19.40
2017,06,26,12,36,19.40
2017,06,26,12,37,19.40
2017,06,26,12,38,19.50
2017,06,26,12,39,19.60
2017,06,26,12,40,19.60
2017,06,26,12,41,19.60
2017,06,26,12,42,19.60
2017,06,26,12,43,19.60
2017,06,26,12,44,19.60
2017,06,26,12,45,19.60
2017,06,26,12,46,19.60
2017,06,26,12,47,19.60
2017,06,26,12,48,19.60
2017,06,26,12,49,19.50
2017,06,26,12,50,19.50
2017,06,26,12,51,19.50
2017,06,26,12,52,19.50
2017,06,26,12,53,19.40
2017,06,26,12,54,19.40
2017,06,26,12,55,19.50
2017,06,26,12,56,19.50
2017,06,26,12,57,19.60
2017,06,26,12,58,19.60
2017,06,26,12,59,19.60
2017,06,26,13,00,19.60
2017,06,26,13,01,19.60
2017,06,26,13,02,19.70
2017,06,26,13,03,19.70
2017,06,26,13,04,19.70
2017,06,26,13,05,19.80
2017,06,26,13,06,19.70
2017,06,26,13,07,19.70
2017,06,26,13,08,19.60
2017,06,26,13,09,19.50
2017,06,26,13,10,19.40
2017,06,26,13,11,19.30
2017,06,26,13,12,19.10
2017,06,26,13,13,18.90
2017,06,26,13,14,18.80
2017,06,26,13,15,18.70
2017,06,26,13,16,18.50
2017,06,26,13,17,18.50
2017,06,26,13,18,18.40
2017,06,26,13,19,18.30
2017,06,26,13,20,18.20
2017,06,26,13,21,18.20
2017,06,26,13,22,18.20
2017,06,26,13,23,18.20
2017,06,26,13,24,18.20
2017,06,26,13,25,18.20
2017,06,26,13,26,18.20
2017,06,26,13,27,18.20
2017,06,26,13,28,18.10
2017,06,26,13,29,18.10
2017,06,26,13,30,18.00
2017,06,26,13,31,18.00
2017,06,26,13,32,17.90
2017,06,26,13,33,17.90
2017,06,26,13,34,17.90
2017,06,26,13,35,17.80
2017,06,26,13,36,17.80
2017,06,26,13,37,17.90
2017,06,26,13,38,18.00
2017,06,26,13,39,18.00
2017,06,26,13,40,18.10
2017,06,26,13,41,18.10
2017,06,26,13,42,18.20
2017,06,26,13,43,18.20
2017,06,26,13,44,18.20
2017,06,26,13,45,18.20
2017,06,26,13,46,18.20
2017,06,26,13,47,18.30
2017,06,26,13,48,18.30
2017,06,26,13,49,18.30
2017,06,26,13,50,18.30
2017,06,26,13,51,18.30
2017,06,26,13,52,18.40
2017,06,26,13,53,18.50
2017,06,26,13,54,18.60
2017,06,26,13,55,18.70
2017,06,26,13,56,18.70
2017,06,26,13,57,18.80
2017,06,26,13,58,18.80
2017,06,26,13,59,18.80
2017,06,26,14,00,18.70
2017,06,26,14,01,18.80
2017,06,26,14,02,18.80
2017,06,26,14,03,18.80
2017,06,26,14,04,18.90
2017,06,26,14,05,18.90
2017,06,26,14,06,18.80
2017,06,26,14,07,18.80
2017,06,26,14,08,18.80
2017,06,26,14,09,18.80
2017,06,26,14,10,18.80
2017,06,26,14,11,18.80
2017,06,26,14,12,18.70
2017,06,26,14,13,18.70
2017,06,26,14,14,18.70
2017,06,26,14,15,18.80
2017,06,26,14,16,18.80
2017,06,26,14,17,18.90
2017,06,26,14,18,19.00
2017,06,26,14,19,19.00
2017,06,26,14,20,19.10
2017,06,26,14,21,19.10
2017,06,26,14,22,19.20
2017,06,26,14,23,19.30
2017,06,26,14,24,19.40
2017,06,26,14,25,19.50
2017,06,26,14,26,19.60
2017,06,26,14,27,19.70
2017,06,26,14,28,19.80
2017,06,26,14,29,19.90
2017,06,26,14,30,20.10
2017,06,26,14,31,20.20
2017,06,26,14,32,20.30
2017,06,26,14,33,20.40
2017,06,26,14,34,20.50
2017,06,26,14,35,20.60
2017,06,26,14,36,20.70
2017,06,26,14,37,20.70
2017,06,26,14,38,20.70
2017,06,26,14,39,20.70
2017,06,26,14,40,20.70
2017,06,26,14,41,20.80
2017,06,26,14,42,20.80
2017,06,26,14,43,20.80
2017,06,26,14,44,20.80
2017,06,26,14,45,20.80
2017,06,26,14,46,20.80
2017,06,26,14,47,20.90
2017,06,26,14,48,21.00
2017,06,26,14,49,21.20
2017,06,26,14,50,21.30
2017,06,26,14,51,21.50
2017,06,26,14,52,21.70
2017,06,26,14,53,22.00
2017,06,26,14,54,22.20
2017,06,26,14,55,22.40
2017,06,26,14,56,22.60
2017,06,26,14,57,22.70
2017,06,26,14,58,23.00
2017,06,26,14,59,23.20
2017,06,26,15,00,23.30
2017,06,26,15,01,23.50
2017,06,26,15,02,23.70
2017,06,26,15,03,23.80
2017,06,26,15,04,24.00
2017,06,26,15,05,24.20
2017,06,26,15,06,24.50
2017,06,26,15,07,24.60
2017,06,26,15,08,24.80
2017,06,26,15,09,25.00
2017,06,26,15,10,25.20
2017,06,26,15,11,25.40
2017,06,26,15,12,25.60
2017,06,26,15,13,25.90
2017,06,26,15,14,26.00
2017,06,26,15,15,26.10
2017,06,26,15,16,26.20
2017,06,26,15,17,26.30
2017,06,26,15,18,26.30
2017,06,26,15,19,26.40
2017,06,26,15,20,26.40
2017,06,26,15,21,26.40
2017,06,26,15,22,26.50
2017,06,26,15,23,26.60
2017,06,26,15,24,26.70
2017,06,26,15,25,26.70
2017,06,26,15,26,26.70
2017,06,26,15,27,26.70
2017,06,26,15,28,26.70
2017,06,26,15,29,26.70
2017,06,26,15,30,26.70
2017,06,26,15,31,26.70
2017,06,26,15,32,26.70
2017,06,26,15,33,26.80
2017,06,26,15,34,26.90
2017,06,26,15,35,27.00
2017,06,26,15,36,27.00
2017,06,26,15,37,27.00
2017,06,26,15,38,26.80
2017,06,26,15,39,26.80
2017,06,26,15,40,26.80
2017,06,26,15,41,26.70
2017,06,26,15,42,26.50
2017,06,26,15,43,26.40
2017,06,26,15,44,26.30
2017,06,26,15,45,26.20
2017,06,26,15,46,26.20
2017,06,26,15,47,26.40
2017,06,26,15,48,26.50
2017,06,26,15,49,26.60
2017,06,26,15,50,26.70
2017,06,26,15,51,26.70
2017,06,26,15,52,26.70
2017,06,26,15,53,26.60
2017,06,26,15,54,26.60
2017,06,26,15,55,26.60
2017,06,26,15,56,26.50
2017,06,26,15,57,26.40
2017,06,26,15,58,26.30
2017,06,26,15,59,26.30
2017,06,26,16,00,26.30
2017,06,26,16,01,26.30
2017,06,26,16,02,26.20
2017,06,26,16,03,26.30
2017,06,26,16,04,26.40
2017,06,26,16,05,26.40
2017,06,26,16,06,26.30
2017,06,26,16,07,26.30
2017,06,26,16,08,26.30
2017,06,26,16,09,26.30
2017,06,26,16,10,26.30
2017,06,26,16,11,26.40
2017,06,26,16,12,26.40
2017,06,26,16,13,26.50
2017,06,26,16,14,26.50
2017,06,26,16,15,26.60
2017,06,26,16,16,26.60
2017,06,26,16,17,26.70
2017,06,26,16,18,26.60
2017,06,26,16,19,26.60
2017,06,26,16,20,26.60
2017,06,26,16,21,26.60
2017,06,26,16,22,26.70
2017,06,26,16,23,26.70
2017,06,26,16,24,26.70
2017,06,26,16,25,26.70
2017,06,26,16,26,26.70
2017,06,26,16,27,26.80
2017,06,26,16,28,26.80
2017,06,26,16,29,26.80
2017,06,26,16,30,26.70
2017,06,26,16,31,26.60
2017,06,26,16,32,26.60
2017,06,26,16,33,26.50
2017,06,26,16,34,26.50
2017,06,26,16,35,26.60
2017,06,26,16,36,26.70
2017,06,26,16,37,26.60
2017,06,26,16,38,26.60
2017,06,26,16,39,26.50
2017,06,26,16,40,26.40
2017,06,26,16,41,26.30
2017,06,26,16,42,26.20
2017,06,26,16,43,26.10
2017,06,26,16,44,26.00
2017,06,26,16,45,25.90
2017,06,26,16,46,25.90
2017,06,26,16,47,25.90
2017,06,26,16,48,26.00
2017,06,26,16,49,26.10
2017,06,26,16,50,26.10
2017,06,26,16,51,26.10
2017,06,26,16,52,26.20
2017,06,26,16,53,26.20
2017,06,26,16,54,26.20
2017,06,26,16,55,26.20
2017,06,26,16,56,26.10
2017,06,26,16,57,26.10
2017,06,26,16,58,26.10
2017,06,26,16,59,26.10
2017,06,26,17,00,26.00
2017,06,26,17,01,26.00
2017,06,26,17,02,25.90
2017,06,26,17,03,25.80
2017,06,26,17,04,25.70
2017,06,26,17,05,25.60
2017,06,26,17,06,25.60
2017,06,26,17,07,25.40
2017,06,26,17,08,25.40
2017,06,26,17,09,25.30
2017,06,26,17,10,25.20
2017,06,26,17,11,25.10
2017,06,26,17,12,25.10
2017,06,26,17,13,25.10
2017,06,26,17,14,25.10
2017,06,26,17,15,25.00
2017,06,26,17,16,25.00
2017,06,26,17,17,25.00
2017,06,26,17,18,25.00
2017,06,26,17,19,25.00
2017,06,26,17,20,25.10
2017,06,26,17,21,25.20
2017,06,26,17,22,25.30
2017,06,26,17,23,25.40
2017,06,26,17,24,25.40
2017,06,26,17,25,25.50
2017,06,26,17,26,25.60
2017,06,26,17,27,25.70
2017,06,26,17,28,25.80
2017,06,26,17,29,25.80
2017,06,26,17,30,25.70
2017,06,26,17,31,25.70
2017,06,26,17,32,25.70
2017,06,26,17,33,25.70
2017,06,26,17,34,25.70
2017,06,26,17,35,25.70
2017,06,26,17,36,25.70
2017,06,26,17,37,25.60
2017,06,26,17,38,25.50
2017,06,26,17,39,25.40
2017,06,26,17,40,25.20
2017,06,26,17,41,25.10
2017,06,26,17,42,24.90
2017,06,26,17,43,24.70
2017,06,26,17,44,24.50
2017,06,26,17,45,24.30
2017,06,26,17,46,24.20
2017,06,26,17,47,24.10
2017,06,26,17,48,24.10
2017,06,26,17,49,24.10
2017,06,26,17,50,24.10
2017,06,26,17,51,24.00
2017,06,26,17,52,24.00
2017,06,26,17,53,23.90
2017,06,26,17,54,23.80
2017,06,26,17,55,23.90
2017,06,26,17,56,23.90
2017,06,26,17,57,23.90
2017,06,26,17,58,23.90
2017,06,26,17,59,23.80
2017,06,26,18,00,23.70
2017,06,26,18,01,23.60
2017,06,26,18,02,23.50
2017,06,26,18,03,23.40
2017,06,26,18,04,23.30
2017,06,26,18,05,23.30
2017,06,26,18,06,23.30
2017,06,26,18,07,23.20
2017,06,26,18,08,23.20
2017,06,26,18,09,23.20
2017,06,26,18,10,23.20
2017,06,26,18,11,23.30
2017,06,26,18,12,23.40
2017,06,26,18,13,23.40
2017,06,26,18,14,23.50
2017,06,26,18,15,23.50
2017,06,26,18,16,23.50
2017,06,26,18,17,23.50
2017,06,26,18,18,23.60
2017,06,26,18,19,23.70
2017,06,26,18,20,23.70
2017,06,26,18,21,23.70
2017,06,26,18,22,23.70
2017,06,26,18,23,23.70
2017,06,26,18,24,23.70
2017,06,26,18,25,23.70
2017,06,26,18,26,23.70
2017,06,26,18,27,23.70
2017,06,26,18,28,23.70
2017,06,26,18,29,23.80
2017,06,26,18,30,23.80
2017,06,26,18,31,23.80
2017,06,26,18,32,23.80
2017,06,26,18,33,23.80
2017,06,26,18,34,23.80
2017,06,26,18,35,23.80
2017,06,26,18,36,23.80
2017,06,26,18,37,23.80
2017,06,26,18,38,23.80
2017,06,26,18,39,23.80
2017,06,26,18,40,23.70
2017,06,26,18,41,23.70
2017,06,26,18,42,23.70
2017,06,26,18,43,23.70
2017,06,26,18,44,23.70
2017,06,26,18,45,23.70
2017,06,26,18,46,23.60
2017,06,26,18,47,23.60
2017,06,26,18,48,23.60
2017,06,26,18,49,23.60
2017,06,26,18,50,23.50
2017,06,26,18,51,23.50
2017,06,26,18,52,23.40
2017,06,26,18,53,23.40
2017,06,26,18,54,23.30
2017,06,26,18,55,23.20
2017,06,26,18,56,23.20
2017,06,26,18,57,23.10
2017,06,26,18,58,23.10
2017,06,26,18,59,23.00
2017,06,26,19,00,22.90
2017,06,26,19,01,22.80
2017,06,26,19,02,22.60
2017,06,26,19,03,22.50
2017,06,26,19,04,22.30
2017,06,26,19,05,22.20
2017,06,26,19,06,22.10
2017,06,26,19,07,22.00
2017,06,26,19,08,22.00
2017,06,26,19,09,21.90
2017,06,26,19,10,21.90
2017,06,26,19,11,21.90
2017,06,26,19,12,21.80
2017,06,26,19,13,21.80
2017,06,26,19,14,21.70
2017,06,26,19,15,21.70
2017,06,26,19,16,21.70
2017,06,26,19,17,21.70
2017,06,26,19,18,21.70
2017,06,26,19,19,21.70
2017,06,26,19,20,21.70
2017,06,26,19,21,21.70
2017,06,26,19,22,21.70
2017,06,26,19,23,21.70
2017,06,26,19,24,21.60
2017,06,26,19,25,21.60
2017,06,26,19,26,21.60
2017,06,26,19,27,21.60
2017,06,26,19,28,21.60
2017,06,26,19,29,21.60
2017,06,26,19,30,21.50
2017,06,26,19,31,21.50
2017,06,26,19,32,21.60
2017,06,26,19,33,21.60
2017,06,26,19,34,21.60
2017,06,26,19,35,21.60
2017,06,26,19,36,21.60
2017,06,26,19,37,21.60
2017,06,26,19,38,21.50
2017,06,26,19,39,21.50
2017,06,26,19,40,21.50
2017,06,26,19,41,21.50
2017,06,26,19,42,21.40
2017,06,26,19,43,21.40
2017,06,26,19,44,21.30
2017,06,26,19,45,21.20
2017,06,26,19,46,21.10
2017,06,26,19,47,21.10
2017,06,26,19,48,21.10
2017,06,26,19,49,21.10
2017,06,26,19,50,21.10
2017,06,26,19,51,21.10
2017,06,26,19,52,21.10
2017,06,26,19,53,21.10
2017,06,26,19,54,21.10
2017,06,26,19,55,21.10
2017,06,26,19,56,21.10
2017,06,26,19,57,21.10
2017,06,26,19,58,21.10
2017,06,26,19,59,21.10
2017,06,26,20,00,21.10
2017,06,26,20,01,21.10
2017,06,26,20,02,21.20
2017,06,26,20,03,21.20
2017,06,26,20,04,21.30
2017,06,26,20,05,21.30
2017,06,26,20,06,21.30
2017,06,26,20,07,21.40
2017,06,26,20,08,21.40
2017,06,26,20,09,21.40
2017,06,26,20,10,21.40
2017,06,26,20,11,21.40
2017,06,26,20,12,21.40
2017,06,26,20,13,21.40
2017,06,26,20,14,21.40
2017,06,26,20,15,21.40
2017,06,26,20,16,21.40
2017,06,26,20,17,21.40
2017,06,26,20,18,21.30
2017,06,26,20,19,21.30
2017,06,26,20,20,21.20
2017,06,26,20,21,21.10
2017,06,26,20,22,21.00
2017,06,26,20,23,20.90
2017,06,26,20,24,20.80
2017,06,26,20,25,20.70
2017,06,26,20,26,20.50
2017,06,26,20,27,20.40
2017,06,26,20,28,20.20
2017,06,26,20,29,20.00
2017,06,26,20,30,19.90
2017,06,26,20,31,19.80
2017,06,26,20,32,19.70
2017,06,26,20,33,19.70
2017,06,26,20,34,19.60
2017,06,26,20,35,19.50
2017,06,26,20,36,19.40
2017,06,26,20,37,19.40
2017,06,26,20,38,19.30
2017,06,26,20,39,19.20
2017,06,26,20,40,19.10
2017,06,26,20,41,19.00
2017,06,26,20,42,18.90
2017,06,26,20,43,18.80
2017,06,26,20,44,18.70
2017,06,26,20,45,18.60
2017,06,26,20,46,18.50
2017,06,26,20,47,18.40
2017,06,26,20,48,18.30
2017,06,26,20,49,18.20
2017,06,26,20,50,18.10
2017,06,26,20,51,18.10
2017,06,26,20,52,18.00
2017,06,26,20,53,17.90
2017,06,26,20,54,17.80
2017,06,26,20,55,17.70
2017,06,26,20,56,17.60
2017,06,26,20,57,17.50
2017,06,26,20,58,17.40
2017,06,26,20,59,17.30
2017,06,26,21,00,17.20
2017,06,26,21,01,17.10
2017,06,26,21,02,17.10
2017,06,26,21,03,17.00
2017,06,26,21,04,16.90
2017,06,26,21,05,16.90
2017,06,26,21,06,16.80
2017,06,26,21,07,16.80
2017,06,26,21,08,16.80
2017,06,26,21,09,16.80
2017,06,26,21,10,16.80
2017,06,26,21,11,16.70
2017,06,26,21,12,16.70
2017,06,26,21,13,16.70
2017,06,26,21,14,16.70
2017,06,26,21,15,16.70
2017,06,26,21,16,16.60
2017,06,26,21,17,16.60
2017,06,26,21,18,16.60
2017,06,26,21,19,16.60
2017,06,26,21,20,16.50
2017,06,26,21,21,16.50
2017,06,26,21,22,16.50
2017,06,26,21,23,16.40
2017,06,26,21,24,16.40
2017,06,26,21,25,16.40
2017,06,26,21,26,16.40
2017,06,26,21,27,16.40
2017,06,26,21,28,16.40
2017,06,26,21,29,16.40
2017,06,26,21,30,16.30
2017,06,26,21,31,16.30
2017,06,26,21,32,16.30
2017,06,26,21,33,16.20
2017,06,26,21,34,16.20
2017,06,26,21,35,16.20
2017,06,26,21,36,16.20
2017,06,26,21,37,16.10
2017,06,26,21,38,16.10
2017,06,26,21,39,16.10
2017,06,26,21,40,16.00
2017,06,26,21,41,15.90
2017,06,26,21,42,15.90
2017,06,26,21,43,15.80
2017,06,26,21,44,15.80
2017,06,26,21,45,15.80
2017,06,26,21,46,15.70
2017,06,26,21,47,15.70
2017,06,26,21,48,15.60
2017,06,26,21,49,15.50
2017,06,26,21,50,15.40
2017,06,26,21,51,15.30
2017,06,26,21,52,15.30
2017,06,26,21,53,15.30
2017,06,26,21,54,15.20
2017,06,26,21,55,15.20
2017,06,26,21,56,15.20
2017,06,26,21,57,15.20
2017,06,26,21,58,15.20
2017,06,26,21,59,15.10
2017,06,26,22,00,15.10
2017,06,26,22,01,15.10
2017,06,26,22,02,15.00
2017,06,26,22,03,14.90
2017,06,26,22,04,14.90
2017,06,26,22,05,14.80
2017,06,26,22,06,14.80
2017,06,26,22,07,14.70
2017,06,26,22,08,14.70
2017,06,26,22,09,14.70
2017,06,26,22,10,14.60
2017,06,26,22,11,14.60
2017,06,26,22,12,14.60
2017,06,26,22,13,14.60
2017,06,26,22,14,14.50
2017,06,26,22,15,14.50
2017,06,26,22,16,14.60
2017,06,26,22,17,14.60
2017,06,26,22,18,14.60
2017,06,26,22,19,14.60
2017,06,26,22,20,14.60
2017,06,26,22,21,14.60
2017,06,26,22,22,14.60
2017,06,26,22,23,14.50
2017,06,26,22,24,14.50
2017,06,26,22,25,14.50
2017,06,26,22,26,14.50
2017,06,26,22,27,14.40
2017,06,26,22,28,14.50
2017,06,26,22,29,14.40
2017,06,26,22,30,14.40
2017,06,26,22,31,14.40
2017,06,26,22,32,14.40
2017,06,26,22,33,14.30
2017,06,26,22,34,14.30
2017,06,26,22,35,14.30
2017,06,26,22,36,14.20
2017,06,26,22,37,14.20
2017,06,26,22,38,14.20
2017,06,26,22,39,14.10
2017,06,26,22,40,14.10
2017,06,26,22,41,14.10
2017,06,26,22,42,14.10
2017,06,26,22,43,14.00
2017,06,26,22,44,14.00
2017,06,26,22,45,14.00
2017,06,26,22,46,13.90
2017,06,26,22,47,13.90
2017,06,26,22,48,13.90
2017,06,26,22,49,13.90
2017,06,26,22,50,13.90
2017,06,26,22,51,13.90
2017,06,26,22,52,13.90
2017,06,26,22,53,13.90
2017,06,26,22,54,13.90
2017,06,26,22,55,13.90
2017,06,26,22,56,13.90
2017,06,26,22,57,13.90
2017,06,26,22,58,13.90
2017,06,26,22,59,13.90
2017,06,26,23,00,13.90
2017,06,26,23,01,13.90
2017,06,26,23,02,13.90
2017,06,26,23,03,13.90
2017,06,26,23,04,13.90
2017,06,26,23,05,13.90
2017,06,26,23,06,13.90
2017,06,26,23,07,13.90
2017,06,26,23,08,13.90
2017,06,26,23,09,13.90
2017,06,26,23,10,13.90
2017,06,26,23,11,13.90
2017,06,26,23,12,13.90
2017,06,26,23,13,13.90
2017,06,26,23,14,13.90
2017,06,26,23,15,13.90
2017,06,26,23,16,13.90
2017,06,26,23,17,13.90
2017,06,26,23,18,13.90
2017,06,26,23,19,13.80
2017,06,26,23,20,13.80
2017,06,26,23,21,13.80
2017,06,26,23,22,13.80
2017,06,26,23,23,13.80
2017,06,26,23,24,13.80
2017,06,26,23,25,13.80
2017,06,26,23,26,13.80
2017,06,26,23,27,13.80
2017,06,26,23,28,13.80
2017,06,26,23,29,13.80
2017,06,26,23,30,13.80
2017,06,26,23,31,13.80
2017,06,26,23,32,13.70
2017,06,26,23,33,13.70
2017,06,26,23,34,13.70
2017,06,26,23,35,13.70
2017,06,26,23,36,13.70
2017,06,26,23,37,13.70
2017,06,26,23,38,13.70
2017,06,26,23,39,13.70
2017,06,26,23,40,13.70
2017,06,26,23,41,13.70
2017,06,26,23,42,13.70
2017,06,26,23,43,13.70
2017,06,26,23,44,13.70
2017,06,26,23,45,13.80
2017,06,26,23,46,13.80
2017,06,26,23,47,13.80
2017,06,26,23,48,13.80
2017,06,26,23,49,13.80
2017,06,26,23,50,13.80
2017,06,26,23,51,13.80
2017,06,26,23,52,13.80
2017,06,26,23,53,13.80
2017,06,26,23,54,13.80
2017,06,26,23,55,13.80
2017,06,26,23,56,13.80
2017,06,26,23,57,13.80
2017,06,26,23,58,13.80
2017,06,26,23,59,13.80
